User: anonymous   Login
Location: Mascot Post Office (historical)
(40.2645°N, 99.5462°W)
Time: 07:09:45
(UTC+00:00)
Language:

SL-16 R/B - Orbit

View from above orbital plane
View from above orbital plane
View from above satellite
View from above satellite

Ground track
Ground track

The orbit data is extracted from the following two-line orbital elements,

1 27006U 01056F   20273.65554064 -.00000050 +00000-0 -63923-5 0  9991
2 27006 099.4884 043.6468 0015396 072.2842 305.3108 13.70964585940909
Epoch (UTC): 29 September 2020 15:43:58
Eccentricity: 0.0015396
inclination: 99.4884°
perigee height: 985 km
apogee height: 1007 km
right ascension of ascending node: 43.6468°
argument of perigee: 72.2842°
revolutions per day: 13.70964585
mean anomaly at epoch: 305.3108°
orbit number at epoch: 94090

The dashed part of the orbit path shows where the satellite is in the earth's shadow,  

DLR